Location: Clinton NY
(43.0598°N, 75.3602°W)
Time: 17:43:00
(UTC-04:00)

Amateur Radio Satellites - All Passes

Search period start: 29 June 2016 17:13
Search period end: 30 June 2016 17:13
Location: Clinton NY, 43.0598°N, 75.3602°W

Satellite Date Start Highest point End Downlink Frequencies (MHz)
Time Altitude Azimuth
Cubesat XI-IV 29 Jun 17:21:42 17:25:53 24° 63° (ENE) 17:30:05 437.490
LilacSat-2 29 Jun 17:23:06 17:25:13 15° 65° (ENE) 17:27:20 437.200
NOAA 18 29 Jun 17:24:17 17:28:53 29° 64° (ENE) 17:33:31 137.9125
BRITE-PL 29 Jun 17:27:35 17:31:53 30° 69° (ENE) 17:35:55 437.365/2234.400
AO-7 29 Jun 17:33:03 17:39:05 22° 269° (W) 17:45:11 29.400- 29.500
Cosmos 2499 29 Jun 17:35:13 17:40:24 18° 75° (ENE) 17:45:42 435.465 / 435.565
CUBESAT XI-V 29 Jun 17:46:04 17:50:07 29° 95° (E) 17:54:07 437.345
AIST 1 29 Jun 17:50:04 17:54:17 51° 281° (WNW) 17:58:30
MOZHAYETS 4 29 Jun 17:52:45 17:56:50 31° 292° (WNW) 18:00:53
RS-15 29 Jun 17:54:34 18:04:41 29° 16° (NNE) 18:14:54 29.354- 29.394
CUTE-I 29 Jun 17:54:37 17:59:40 45° 69° (ENE) 18:04:46 437.470
KKS-1 29 Jun 17:54:50 17:58:33 27° 293° (WNW) 18:02:16 437.445
HO-68 29 Jun 17:55:36 17:57:57 12° 47° (NE) 18:00:19 435.675
GOMX 1 29 Jun 17:56:18 17:59:59 25° 68° (ENE) 18:03:32 467.674
SO-50 29 Jun 18:04:41 18:07:47 16° 324° (NW) 18:10:52 436.795
CUSAT 1 29 Jun 18:13:22 18:16:34 27° 70° (ENE) 18:19:11 437.405
NOAA 15 29 Jun 18:19:01 18:24:19 82° 256° (WSW) 18:29:38 137.62
GONETS M04 29 Jun 18:20:18 18:28:38 53° 90° (E) 18:36:58
HORYU 2 29 Jun 18:20:41 18:23:14 15° 269° (W) 18:25:49 437.375
STARS 29 Jun 18:24:02 18:27:39 25° 293° (WNW) 18:31:16 437.465
DANDE 29 Jun 18:45:50 18:50:15 30° 68° (ENE) 18:53:40 436.750
DOVE 4 29 Jun 18:50:30 18:54:30 40° 71° (ENE) 18:58:24 437.250
LilacSat-2 29 Jun 18:55:33 18:59:09 43° 261° (W) 19:02:49 437.200
CUTE 1.7 + AOD 2 29 Jun 18:57:52 18:59:55 13° 62° (ENE) 19:01:57 437.475
Cubesat XI-IV 29 Jun 19:00:27 19:05:37 49° 261° (W) 19:10:51 437.490
SEEDS 29 Jun 19:01:33 19:01:55 10° 60° (ENE) 19:02:18 437.485
NOAA 18 29 Jun 19:04:12 19:09:21 42° 261° (W) 19:14:34 137.9125
BRITE-PL 29 Jun 19:05:56 19:10:20 30° 263° (W) 19:14:28 437.365/2234.400
CUBESAT XI-V 29 Jun 19:23:27 19:27:27 29° 292° (WNW) 19:31:24 437.345
Cosmos 2499 29 Jun 19:23:44 19:32:05 86° 96° (E) 19:40:59 435.465 / 435.565
STRAND 1 29 Jun 19:33:49 19:38:10 27° 95° (E) 19:42:29 437.568
GOMX 1 29 Jun 19:33:55 19:38:00 31° 263° (W) 19:41:54 467.674
AAUSAT CUBESAT 2 29 Jun 19:35:30 19:37:34 14° 63° (ENE) 19:39:40 437.432
CUTE-I 29 Jun 19:35:35 19:39:54 25° 266° (W) 19:44:16 437.470
HO-68 29 Jun 19:37:12 19:44:08 56° 67° (ENE) 19:51:07 435.675
CINEMA 3 29 Jun 19:37:48 19:41:35 36° 71° (ENE) 19:45:26 145.822/145.860
M-CUBED/EXP-1 PRIME 29 Jun 19:51:13 19:52:47 13° 59° (ENE) 19:54:24 437.505
CUSAT 1 29 Jun 19:57:01 19:58:04 11° 277° (W) 19:59:04 437.405
Oscar 11 29 Jun 19:59:08 20:00:00 11° 60° (ENE) 20:00:52 145.826/435.025
FUNcube-1 29 Jun 20:08:01 20:09:15 11° 60° (ENE) 20:10:30 145.935
RS-15 29 Jun 20:08:19 20:20:31 60° 47° (NE) 20:32:37 29.354- 29.394
COMPASS 1 29 Jun 20:08:41 20:12:33 36° 71° (ENE) 20:16:26 437.405
CANX-2 29 Jun 20:11:08 20:15:25 88° 83° (E) 20:19:46 2200.000
UWE-3 29 Jun 20:12:48 20:15:50 20° 65° (ENE) 20:18:56 435.000/436.395/437.385
AO-85 29 Jun 20:15:11 20:17:47 14° 107° (ESE) 20:20:21 145.980
GONETS M04 29 Jun 20:17:58 20:25:45 36° 290° (WNW) 20:33:35
DANDE 29 Jun 20:29:16 20:32:41 20° 277° (W) 20:35:31 436.750
DOVE 4 29 Jun 20:29:29 20:32:23 18° 267° (W) 20:35:14 437.250
CUTE 1.7 + AOD 2 29 Jun 20:30:59 20:35:13 64° 259° (W) 20:39:31 437.475
SEEDS 29 Jun 20:32:41 20:36:56 85° 256° (WSW) 20:41:14 437.485
AUBIESAT-1 29 Jun 20:43:22 20:46:32 45° 67° (ENE) 20:49:45 437.475
CUBEBUG 2 29 Jun 21:03:01 21:07:11 84° 257° (WSW) 21:11:29 437.445
AAUSAT CUBESAT 2 29 Jun 21:08:26 21:12:34 60° 260° (W) 21:16:45 437.432
DELFI C3 29 Jun 21:10:35 21:13:55 25° 68° (ENE) 21:17:15 145.870
STRAND 1 29 Jun 21:12:39 21:17:26 39° 292° (WNW) 21:22:10 437.568
CINEMA 3 29 Jun 21:15:58 21:18:54 19° 267° (W) 21:21:51 145.822/145.860
Cosmos 2499 29 Jun 21:20:06 21:26:26 23° 298° (WNW) 21:33:01 435.465 / 435.565
ZACube-1 29 Jun 21:23:46 21:27:58 74° 74° (ENE) 21:32:17 437.345
M-CUBED/EXP-1 PRIME 29 Jun 21:24:03 21:27:05 36° 256° (WSW) 21:30:09 437.505
HO-68 29 Jun 21:26:04 21:32:09 30° 265° (W) 21:38:18 435.675
Oscar 11 29 Jun 21:31:06 21:35:27 85° 259° (W) 21:39:50 145.826/435.025
FUNcube-1 29 Jun 21:40:38 21:44:50 77° 259° (W) 21:49:10 145.935
COMPASS 1 29 Jun 21:45:07 21:48:13 20° 267° (W) 21:51:21 437.405
UWE-3 29 Jun 21:48:06 21:52:01 39° 263° (W) 21:56:03 435.000/436.395/437.385
AO-85 29 Jun 21:52:11 21:57:38 89° 100° (E) 22:02:53 145.980
PRISM 29 Jun 21:52:29 21:56:34 74° 285° (WNW) 22:00:36 437.425
ANTELSAT 29 Jun 22:09:37 22:11:45 13° 89° (E) 22:13:54 437.575/2403.000
RS-15 29 Jun 22:21:20 22:32:49 48° 251° (WSW) 22:44:12 29.354- 29.394
HUMSAT D 29 Jun 22:25:35 22:29:46 83° 74° (ENE) 22:34:02 437.325/437.525
YUBILEINY 29 Jun 22:31:56 22:38:24 22° 62° (ENE) 22:44:49 435.215
AISAT 29 Jun 22:38:06 22:40:37 15° 62° (ENE) 22:43:09 437.250
ESTCUBE 1 29 Jun 22:38:12 22:41:45 23° 66° (ENE) 22:45:18 437.505/2401.250
DELFI C3 29 Jun 22:45:16 22:48:41 26° 265° (W) 22:52:08 145.870
DX 1 29 Jun 22:53:14 22:55:55 16° 63° (ENE) 22:58:36 434.975-435.025
TIGRISAT 29 Jun 22:59:03 23:03:25 39° 98° (E) 23:07:49 435.000
50 SAT 29 Jun 23:04:21 23:07:22 24° 68° (ENE) 23:10:24 437.505
UNISAT 6 29 Jun 23:04:33 23:09:04 47° 99° (E) 23:13:36 437.425
SO-50 29 Jun 23:12:49 23:16:12 19° 38° (NE) 23:19:31 436.795
CUBEBUG 1 29 Jun 23:19:54 23:23:57 39° 70° (ENE) 23:28:00 437.445
QB50P2 29 Jun 23:21:55 23:23:38 12° 90° (E) 23:25:21 145.880/145.840
POLYITAN 1 29 Jun 23:24:26 23:26:17 12° 90° (E) 23:28:07 437.675
VELOX 1 29 Jun 23:31:21 23:35:36 49° 72° (ENE) 23:39:51 145.980
AO-85 29 Jun 23:34:58 23:38:47 19° 322° (NW) 23:42:28 145.980
Cosmos 2491 29 Jun 23:44:12 23:51:08 27° 81° (E) 23:58:01 435.465 / 435.565
ANTELSAT 29 Jun 23:44:15 23:48:54 69° 286° (WNW) 23:53:34 437.575/2403.000
SPROUT 30 Jun 00:03:53 00:07:55 46° 72° (ENE) 00:12:00 437.525
UKube-1 30 Jun 00:04:47 00:09:04 72° 74° (ENE) 00:13:23 .
BUGSAT 1 30 Jun 00:11:28 00:14:02 16° 92° (E) 00:16:36 437.445
AISAT 30 Jun 00:12:18 00:16:38 58° 259° (W) 00:20:59 437.250
ESTCUBE 1 30 Jun 00:14:07 00:18:20 38° 262° (W) 00:22:35 437.505/2401.250
DX 1 30 Jun 00:27:28 00:31:42 52° 260° (W) 00:35:57 434.975-435.025
YUBILEINY 30 Jun 00:27:31 00:36:24 87° 264° (W) 00:45:16 435.215
NANOSAT C BR1 30 Jun 00:35:40 00:39:56 72° 102° (ESE) 00:44:10 145.865
TIGRISAT 30 Jun 00:36:12 00:39:53 23° 294° (WNW) 00:43:34 435.000
50 SAT 30 Jun 00:37:55 00:40:58 24° 265° (W) 00:44:02 437.505
QB50P1 30 Jun 00:39:29 00:43:46 83° 103° (ESE) 00:48:02 145.935-145.965
UNISAT 6 30 Jun 00:42:05 00:45:26 20° 296° (WNW) 00:48:49 437.425
Cosmos 2504 30 Jun 00:42:46 00:51:11 44° 72° (ENE) 00:59:14 435.465 / 435.565
POPSAT HIP 1 30 Jun 00:42:51 00:47:08 89° 103° (ESE) 00:51:25 437.405
SO-50 30 Jun 00:52:32 00:57:13 72° 239° (WSW) 01:01:42 436.795
SWISSCUBE 30 Jun 00:53:11 00:54:46 12° 58° (ENE) 00:56:22 437.505
DUCHIFAT 1 30 Jun 00:55:35 00:59:50 73° 284° (WNW) 01:04:03 145.980
QB50P2 30 Jun 00:55:37 00:59:50 62° 286° (WNW) 01:04:03 145.880/145.840
CUBEBUG 1 30 Jun 00:57:14 01:00:23 19° 267° (W) 01:03:33 437.445
POLYITAN 1 30 Jun 00:58:14 01:02:28 60° 286° (WNW) 01:06:41 437.675
PCSat 30 Jun 01:00:56 01:04:06 16° 104° (ESE) 01:07:17 145.827
JAS-2 30 Jun 01:03:04 01:07:59 31° 94° (E) 01:12:35 435.910
VELOX 1 30 Jun 01:09:34 01:12:20 16° 268° (W) 01:15:06 145.980
Oscar 19 30 Jun 01:15:21 01:18:01 14° 90° (E) 01:20:40 437.125/150
BEESAT 30 Jun 01:16:31 01:19:39 18° 62° (ENE) 01:22:47 436.000
ITUPSAT 1 30 Jun 01:18:26 01:21:39 18° 62° (ENE) 01:24:52 437.325
TISAT 1 30 Jun 01:18:48 01:22:57 81° 74° (ENE) 01:27:08 437.305
Cosmos 2491 30 Jun 01:38:30 01:47:12 67° 281° (W) 01:55:56 435.465 / 435.565
SPROUT 30 Jun 01:41:30 01:44:08 16° 268° (W) 01:46:46 437.525
Gurwin Techsat 1B 30 Jun 01:44:37 01:46:27 12° 88° (E) 01:48:16 435.225
UKube-1 30 Jun 01:44:39 01:45:36 11° 271° (W) 01:46:33 .
BUGSAT 1 30 Jun 01:45:43 01:49:36 43° 289° (WNW) 01:53:33 437.445
BEESAT 3 30 Jun 01:58:07 02:01:22 25° 114° (ESE) 02:04:38 437.485
NANOSAT C BR1 30 Jun 02:13:31 02:15:05 12° 299° (WNW) 02:16:39 145.865
QB50P1 30 Jun 02:18:11 02:18:53 10° 300° (WNW) 02:19:35 145.935-145.965
YUBILEINY 30 Jun 02:26:30 02:31:51 18° 284° (WNW) 02:37:12 435.215
SWISSCUBE 30 Jun 02:27:01 02:31:49 88° 76° (ENE) 02:36:39 437.505
Cosmos 2504 30 Jun 02:36:19 02:44:33 45° 273° (W) 02:52:28 435.465 / 435.565
BEESAT 2 30 Jun 02:38:29 02:42:08 37° 117° (ESE) 02:45:50 435.950
PCSat 30 Jun 02:41:25 02:46:49 75° 301° (WNW) 02:52:17 145.827
JAS-2 30 Jun 02:48:06 02:53:08 34° 295° (WNW) 02:57:49 435.910
O/OREOS (USA 219) 30 Jun 02:49:02 02:53:29 68° 110° (ESE) 02:57:58 437.305
BEESAT 30 Jun 02:52:17 02:56:58 58° 259° (W) 03:01:43 436.000
Oscar 19 30 Jun 02:52:44 02:57:52 72° 286° (WNW) 03:02:58 437.125/150
ITUPSAT 1 30 Jun 02:54:20 02:59:02 56° 259° (W) 03:03:48 437.325
KKS-1 30 Jun 03:17:03 03:20:58 32° 68° (ENE) 03:24:54 437.445
MOZHAYETS 4 30 Jun 03:18:22 03:22:24 30° 68° (ENE) 03:26:27
ITAMSAT 1 30 Jun 03:18:50 03:23:30 32° 96° (E) 03:28:07 435.822/435.867
Gurwin Techsat 1B 30 Jun 03:21:44 03:27:06 88° 284° (WNW) 03:32:26 435.225
BEESAT 3 30 Jun 03:35:24 03:38:56 31° 312° (NW) 03:42:30 437.485
AO-7 30 Jun 03:38:35 03:45:14 25° 93° (E) 03:51:48 29.400- 29.500
Cosmos 2491 30 Jun 03:41:41 03:45:59 14° 305° (NW) 03:50:18 435.465 / 435.565
STARS 30 Jun 03:45:00 03:48:51 32° 68° (ENE) 03:52:44 437.465
AIST 1 30 Jun 03:56:00 04:00:02 39° 77° (ENE) 04:04:01
BEESAT 2 30 Jun 04:16:52 04:20:05 23° 315° (NW) 04:23:20 435.950
PCSat 30 Jun 04:27:58 04:31:11 16° 323° (NW) 04:34:25 145.827
GONETS M04 30 Jun 04:29:30 04:36:42 28° 66° (ENE) 04:43:54
O/OREOS (USA 219) 30 Jun 04:30:48 04:33:23 15° 309° (NW) 04:35:58 437.305
Oscar 19 30 Jun 04:35:43 04:36:15 10° 304° (NW) 04:36:49 437.125/150
AO-85 30 Jun 04:44:21 04:47:19 16° 35° (NE) 04:50:09 145.980
CUBESAT XI-V 30 Jun 04:50:05 04:54:16 33° 69° (ENE) 04:58:27 437.345
KKS-1 30 Jun 04:53:55 04:57:33 25° 265° (W) 05:01:12 437.445
MOZHAYETS 4 30 Jun 04:55:30 04:59:31 29° 265° (W) 05:03:33
ITAMSAT 1 30 Jun 04:58:15 05:02:56 34° 293° (WNW) 05:07:36 435.822/435.867
Gurwin Techsat 1B 30 Jun 05:03:47 05:06:15 13° 303° (WNW) 05:08:43 435.225
AIST 2 30 Jun 05:11:06 05:15:13 86° 123° (ESE) 05:19:23 435.215
Cosmos 2499 30 Jun 05:14:35 05:22:29 35° 69° (ENE) 05:29:55 435.465 / 435.565
STARS 30 Jun 05:21:41 05:25:14 24° 265° (W) 05:28:48 437.465
AO-7 30 Jun 05:30:19 05:38:41 74° 292° (WNW) 05:47:00 29.400- 29.500
AIST 1 30 Jun 05:34:30 05:37:17 17° 274° (W) 05:40:03
HORYU 2 30 Jun 06:08:12 06:12:43 86° 284° (WNW) 06:17:13 437.375
CUTE-I 30 Jun 06:11:48 06:15:07 16° 90° (E) 06:18:25 437.470
AO-85 30 Jun 06:23:56 06:28:30 83° 237° (WSW) 06:32:38 145.980
GONETS M04 30 Jun 06:25:37 06:34:16 69° 267° (W) 06:42:55
CUBESAT XI-V 30 Jun 06:27:40 06:31:39 27° 265° (W) 06:35:39 437.345
LilacSat-2 30 Jun 06:28:32 06:31:16 18° 93° (E) 06:34:01 437.200
NOAA 15 30 Jun 06:33:29 06:38:15 34° 97° (E) 06:42:59 137.62
STRAND 1 30 Jun 06:50:22 06:55:12 43° 69° (ENE) 07:00:04 437.568
AIST 2 30 Jun 06:52:00 06:54:17 14° 322° (NW) 06:56:35 435.215
Cosmos 2499 30 Jun 07:07:31 07:15:59 55° 270° (W) 07:23:55 435.465 / 435.565
PHONESAT 2.4 30 Jun 07:08:26 07:11:12 31° 164° (SSE) 07:13:59 2401.200-2431.200
BRITE-PL 30 Jun 07:08:50 07:13:00 78° 103° (ESE) 07:17:12 437.365/2234.400
CUSAT 1 30 Jun 07:12:40 07:20:01 51° 95° (E) 07:26:11 437.405
Cubesat XI-IV 30 Jun 07:16:27 07:21:48 62° 101° (ESE) 07:27:07 437.490
NOAA 18 30 Jun 07:24:43 07:30:18 77° 104° (ESE) 07:35:51 137.9125
AO-7 30 Jun 07:24:46 07:30:06 19° 313° (NW) 07:35:25 29.400- 29.500
GOMX 1 30 Jun 07:33:29 07:37:41 63° 101° (ESE) 07:42:03 467.674
HORYU 2 30 Jun 07:48:06 07:48:32 10° 302° (WNW) 07:48:58 437.375
DANDE 30 Jun 07:50:10 07:58:15 53° 93° (E) 08:05:34 436.750
CUTE-I 30 Jun 07:50:18 07:55:39 68° 287° (WNW) 08:00:58 437.470
CANX-2 30 Jun 07:56:42 07:59:05 15° 90° (E) 08:01:28 2200.000
LilacSat-2 30 Jun 08:02:09 08:05:40 33° 289° (WNW) 08:09:11 437.200
NOAA 15 30 Jun 08:13:21 08:17:57 32° 294° (WNW) 08:22:32 137.62
CUTE 1.7 + AOD 2 30 Jun 08:15:41 08:18:53 20° 93° (E) 08:22:05 437.475
SEEDS 30 Jun 08:17:00 08:19:29 15° 91° (E) 08:21:55 437.485
DOVE 4 30 Jun 08:24:47 08:29:09 80° 283° (WNW) 08:33:44 437.250
GONETS M04 30 Jun 08:26:04 08:29:19 13° 287° (WNW) 08:32:36
ISS 30 Jun 08:26:05 08:29:13 45° 141° (SE) 08:32:22 145.825
STRAND 1 30 Jun 08:30:22 08:34:31 24° 266° (W) 08:38:43 437.568
PRISM 30 Jun 08:42:19 08:46:28 88° 81° (E) 08:50:38 437.425
PHONESAT 2.4 30 Jun 08:44:34 08:47:34 52° 180° (S) 08:50:34 2401.200-2431.200
AAUSAT CUBESAT 2 30 Jun 08:50:32 08:53:35 19° 93° (E) 08:56:36 437.432
HO-68 30 Jun 08:51:10 08:58:12 53° 101° (E) 09:05:12 435.675
CUBEBUG 2 30 Jun 08:53:11 08:56:39 20° 93° (E) 09:00:09 437.445
CUSAT 1 30 Jun 08:55:37 09:02:11 32° 288° (WNW) 09:07:48 437.405
Cubesat XI-IV 30 Jun 08:57:36 09:01:23 20° 299° (WNW) 09:05:09 437.490
M-CUBED/EXP-1 PRIME 30 Jun 09:03:29 09:04:12 10° 97° (E) 09:04:56 437.505
NOAA 18 30 Jun 09:06:50 09:10:18 17° 302° (WNW) 09:13:47 137.9125
CINEMA 3 30 Jun 09:07:16 09:11:52 86° 106° (ESE) 09:16:39 145.822/145.860
ANTELSAT 30 Jun 09:10:07 09:12:02 13° 61° (ENE) 09:13:58 437.575/2403.000
ZACube-1 30 Jun 09:12:21 09:14:53 15° 90° (E) 09:17:25 437.345
GOMX 1 30 Jun 09:13:28 09:15:20 13° 297° (WNW) 09:17:14 467.674
Oscar 11 30 Jun 09:18:30 09:21:18 17° 91° (E) 09:24:06 145.826/435.025
COMPASS 1 30 Jun 09:25:38 09:29:48 61° 101° (E) 09:33:55 437.405
FUNcube-1 30 Jun 09:28:14 09:31:36 20° 93° (E) 09:34:58 145.935
CANX-2 30 Jun 09:31:04 09:35:15 51° 287° (WNW) 09:39:23 2200.000
DANDE 30 Jun 09:33:35 09:41:13 38° 289° (WNW) 09:48:09 436.750
CUTE-I 30 Jun 09:33:59 09:34:41 10° 306° (NW) 09:35:24 437.470
UWE-3 30 Jun 09:36:08 09:40:27 38° 97° (E) 09:44:47 435.000/436.395/437.385
PCSat 30 Jun 09:45:50 09:49:50 20° 42° (NE) 09:53:49 145.827
CUTE 1.7 + AOD 2 30 Jun 09:50:54 09:54:51 36° 290° (WNW) 09:58:45 437.475
SEEDS 30 Jun 09:51:21 09:55:27 48° 287° (WNW) 09:59:31 437.485
Cosmos 2491 30 Jun 09:53:22 09:57:28 14° 55° (NE) 10:01:33 435.465 / 435.565
AUBIESAT-1 30 Jun 09:54:22 09:57:59 32° 103° (ESE) 10:01:50 437.475
TIGRISAT 30 Jun 09:58:44 10:02:40 36° 70° (ENE) 10:06:44 435.000
ISS 30 Jun 10:02:47 10:05:45 31° 339° (NNW) 10:08:43 145.825
UNISAT 6 30 Jun 10:04:19 10:08:25 44° 71° (ENE) 10:12:38 437.425
HUMSAT D 30 Jun 10:09:48 10:11:48 13° 90° (E) 10:13:49 437.325/437.525
BEESAT 3 30 Jun 10:14:07 10:17:21 23° 45° (NE) 10:20:34 437.485
QB50P2 30 Jun 10:16:28 10:17:46 11° 61° (ENE) 10:19:03 145.880/145.840
POLYITAN 1 30 Jun 10:18:59 10:20:23 11° 61° (ENE) 10:21:46 437.675
PHONESAT 2.4 30 Jun 10:21:09 10:23:56 31° 197° (SSW) 10:26:42 2401.200-2431.200
DELFI C3 30 Jun 10:21:25 10:25:06 34° 97° (E) 10:28:43 145.870
AAUSAT CUBESAT 2 30 Jun 10:25:21 10:29:11 36° 289° (WNW) 10:32:58 437.432
CUBEBUG 2 30 Jun 10:29:03 10:33:25 43° 288° (WNW) 10:37:53 437.445
RS-15 30 Jun 10:35:00 10:44:12 30° 102° (ESE) 10:53:46 29.354- 29.394
M-CUBED/EXP-1 PRIME 30 Jun 10:35:07 10:39:01 71° 290° (WNW) 10:43:15 437.505
HO-68 30 Jun 10:39:22 10:45:37 33° 299° (WNW) 10:51:51 435.675
ANTELSAT 30 Jun 10:43:51 10:48:08 70° 258° (WSW) 10:52:34 437.575/2403.000
CINEMA 3 30 Jun 10:46:53 10:48:23 11° 299° (WNW) 10:49:54 145.822/145.860
ZACube-1 30 Jun 10:47:02 10:51:32 59° 286° (WNW) 10:56:02 437.345
Oscar 11 30 Jun 10:53:30 10:57:40 46° 288° (WNW) 11:01:50 145.826/435.025
BEESAT 2 30 Jun 10:55:30 10:59:08 32° 48° (NE) 11:02:45 435.950
COMPASS 1 30 Jun 11:02:51 11:04:51 13° 297° (WNW) 11:06:50 437.405
BUGSAT 1 30 Jun 11:03:09 11:05:02 13° 63° (ENE) 11:06:56 437.445
FUNcube-1 30 Jun 11:03:42 11:08:00 42° 289° (WNW) 11:12:18 145.935
UWE-3 30 Jun 11:13:03 11:16:41 24° 293° (WNW) 11:20:22 435.000/436.395/437.385
JAS-2 30 Jun 11:15:57 11:21:18 22° 60° (ENE) 11:26:19 435.910
O/OREOS (USA 219) 30 Jun 11:19:41 11:22:48 18° 53° (NE) 11:25:53 437.305
PCSat 30 Jun 11:28:25 11:33:51 78° 242° (WSW) 11:39:16 145.827
NANOSAT C BR1 30 Jun 11:28:28 11:32:34 58° 73° (ENE) 11:36:42 145.865
AUBIESAT-1 30 Jun 11:29:10 11:32:20 23° 297° (WNW) 11:35:40 437.475
QB50P1 30 Jun 11:32:32 11:36:41 68° 75° (ENE) 11:40:53 145.935-145.965
YUBILEINY 30 Jun 11:35:45 11:42:00 23° 79° (ENE) 11:48:17 435.215
POPSAT HIP 1 30 Jun 11:35:56 11:40:06 73° 75° (ENE) 11:44:19 437.405
TIGRISAT 30 Jun 11:36:13 11:39:29 21° 267° (W) 11:42:51 435.000
ISS 30 Jun 11:40:34 11:42:55 18° 359° (N) 11:45:15 145.825
UNISAT 6 30 Jun 11:42:30 11:45:23 17° 269° (W) 11:48:20 437.425
HUMSAT D 30 Jun 11:43:33 11:47:48 59° 286° (WNW) 11:52:02 437.325/437.525
Cosmos 2491 30 Jun 11:47:36 11:56:18 66° 78° (ENE) 12:04:56 435.465 / 435.565
DUCHIFAT 1 30 Jun 11:48:01 11:52:10 90° 249° (WSW) 11:56:23 145.980
QB50P2 30 Jun 11:48:46 11:52:57 75° 259° (W) 11:57:11 145.880/145.840
POLYITAN 1 30 Jun 11:51:24 11:55:35 73° 258° (WSW) 11:59:48 437.675
BEESAT 3 30 Jun 11:51:28 11:55:08 37° 243° (WSW) 11:58:47 437.485
UKube-1 30 Jun 11:53:35 11:54:34 11° 89° (E) 11:55:34 .
AIST 2 30 Jun 11:54:48 11:56:30 12° 36° (NE) 11:58:13 435.215
DELFI C3 30 Jun 11:56:51 11:59:44 19° 294° (WNW) 12:02:35 145.870
AISAT 30 Jun 12:01:54 12:05:28 24° 95° (E) 12:09:02 437.250
ESTCUBE 1 30 Jun 12:05:22 12:09:37 40° 98° (E) 12:13:50 437.505/2401.250
50 SAT 30 Jun 12:05:38 12:08:43 25° 96° (E) 12:11:45 437.505
DX 1 30 Jun 12:15:01 12:18:33 24° 95° (E) 12:22:04 434.975-435.025
Oscar 19 30 Jun 12:32:35 12:36:39 24° 64° (ENE) 12:40:43 437.125/150
BEESAT 2 30 Jun 12:33:33 12:36:51 25° 246° (WSW) 12:40:08 435.950
BUGSAT 1 30 Jun 12:36:01 12:39:58 55° 259° (W) 12:43:55 437.445
CUBEBUG 1 30 Jun 12:43:15 12:47:35 71° 103° (ESE) 12:51:53 437.445
RS-15 30 Jun 12:43:50 12:55:19 80° 305° (NW) 13:07:30 29.354- 29.394
VELOX 1 30 Jun 12:56:33 13:00:58 87° 101° (ESE) 13:05:23 145.980
JAS-2 30 Jun 12:58:06 13:05:44 80° 256° (WSW) 13:12:38 435.910
O/OREOS (USA 219) 30 Jun 12:58:09 13:02:31 53° 252° (WSW) 13:06:53 437.305
TISAT 1 30 Jun 13:03:52 13:05:19 11° 90° (E) 13:06:45 437.305
Gurwin Techsat 1B 30 Jun 13:05:33 13:09:36 23° 63° (ENE) 13:13:39 435.225
NANOSAT C BR1 30 Jun 13:06:55 13:08:40 12° 270° (W) 13:10:26 145.865
QB50P1 30 Jun 13:12:07 13:12:56 10° 271° (W) 13:13:46 145.935-145.965
PCSat 30 Jun 13:15:57 13:16:18 10° 259° (W) 13:16:38 145.827
ISS 30 Jun 13:17:14 13:20:07 28° 19° (NNE) 13:22:59 145.825
Cosmos 2504 30 Jun 13:22:15 13:29:22 34° 83° (E) 13:36:53 435.465 / 435.565
SPROUT 30 Jun 13:24:22 13:28:40 81° 102° (ESE) 13:32:57 437.525
UKube-1 30 Jun 13:26:48 13:31:05 71° 287° (WNW) 13:35:23 .
YUBILEINY 30 Jun 13:29:03 13:37:45 79° 278° (W) 13:46:35 435.215
AIST 2 30 Jun 13:31:34 13:35:44 74° 55° (NE) 13:39:53 435.215
AISAT 30 Jun 13:38:04 13:42:00 33° 291° (WNW) 13:45:54 437.250
50 SAT 30 Jun 13:39:23 13:42:18 22° 292° (WNW) 13:45:10 437.505
ESTCUBE 1 30 Jun 13:42:47 13:46:09 21° 295° (WNW) 13:49:31 437.505/2401.250
Cosmos 2491 30 Jun 13:45:28 13:52:24 28° 279° (W) 13:59:21 435.465 / 435.565
DX 1 30 Jun 13:50:54 13:54:46 32° 292° (WNW) 13:58:37 434.975-435.025
Oscar 19 30 Jun 14:10:47 14:15:42 45° 261° (W) 14:20:38 437.125/150
CUBEBUG 1 30 Jun 14:21:31 14:23:17 12° 299° (WNW) 14:25:03 437.445
SWISSCUBE 30 Jun 14:27:02 14:30:40 21° 93° (E) 14:34:15 437.505
VELOX 1 30 Jun 14:35:58 14:36:45 10° 301° (WNW) 14:37:31 145.980
TISAT 1 30 Jun 14:37:12 14:41:22 63° 287° (WNW) 14:45:32 437.305
ITAMSAT 1 30 Jun 14:37:30 14:42:34 54° 71° (ENE) 14:47:40 435.822/435.867
AO-7 30 Jun 14:38:23 14:45:56 40° 59° (ENE) 14:53:31 29.400- 29.500
Gurwin Techsat 1B 30 Jun 14:44:01 14:49:11 52° 260° (W) 14:54:23 435.225
JAS-2 30 Jun 14:47:35 14:51:29 15° 272° (W) 14:55:15 435.910
BEESAT 30 Jun 14:51:34 14:55:54 33° 97° (E) 15:00:11 436.000
ISS 30 Jun 14:53:30 14:56:45 58° 217° (SW) 14:59:56 145.825
ITUPSAT 1 30 Jun 14:53:59 14:58:21 34° 97° (E) 15:02:42 437.325
RS-15 30 Jun 14:59:43 15:10:01 33° 334° (NNW) 15:20:46 29.354- 29.394
SPROUT 30 Jun 15:02:55 15:03:58 11° 300° (WNW) 15:05:02 437.525
SO-50 30 Jun 15:07:31 15:11:47 31° 114° (ESE) 15:16:02 436.795
AIST 2 30 Jun 15:12:19 15:13:37 11° 252° (WSW) 15:14:55 435.215
Cosmos 2504 30 Jun 15:14:18 15:22:18 55° 285° (WNW) 15:30:53 435.465 / 435.565
YUBILEINY 30 Jun 15:30:50 15:36:11 17° 302° (WNW) 15:41:35 435.215
HORYU 2 30 Jun 15:34:05 15:35:23 11° 59° (ENE) 15:36:42 437.375
SWISSCUBE 30 Jun 16:04:06 16:08:38 44° 290° (WNW) 16:13:10 437.505
ITAMSAT 1 30 Jun 16:18:35 16:22:21 20° 268° (W) 16:26:08 435.822/435.867
AIST 1 30 Jun 16:26:48 16:30:11 23° 88° (E) 16:33:32
BEESAT 30 Jun 16:29:29 16:33:34 29° 294° (WNW) 16:37:38 436.000
AO-7 30 Jun 16:30:27 16:38:29 51° 258° (WSW) 16:46:37 29.400- 29.500
ITUPSAT 1 30 Jun 16:32:00 16:36:04 28° 294° (WNW) 16:40:07 437.325
KKS-1 30 Jun 16:42:47 16:47:11 56° 101° (E) 16:51:33 437.445
BRITE-PL 30 Jun 16:45:20 16:47:06 12° 62° (ENE) 16:48:49 437.365/2234.400
SO-50 30 Jun 16:47:35 16:52:10 39° 312° (NW) 16:56:45 436.795
MOZHAYETS 4 30 Jun 16:48:43 16:53:20 62° 101° (E) 16:57:54
Cubesat XI-IV 30 Jun 17:02:06 17:05:21 16° 59° (ENE) 17:08:36 437.490
